Dewpoint
49 49 49 49 48 48 48 48 48 47 48 48 47 46 47 46 45 46 45 46 45 44 44 42 40 41 40 41 39 40 41 42 44 44 44 45 45 44 43 42 42 43 43 41 41 42 41 39 39 40 40 40 40 39 39 38 38 38 38 37 37 37 37 36 35 35 36 38 38 38 38 39 38 39 39 39 40 41 44 42 44 45 47 53 60
47 47 48 48 48 48 48 48 48 47 48 47 46 44 45 47 47 46 46 45 43 41 43 44 42 41 40 38 39 38 38 39 40 42 41 43 45 45 44 42 42 41 43 40 41 42 42 39 38 39 40 40 39 37 37 37 36 36 36 36 36 36 36 36 35 35 34 36 36 37 37 38 37 38 38 39 39 41 41 41 43 44 46 50 58
46 46 47 47 47 48 48 47 46 47 47 46 46 44 45 45 43 45 44 45 44 43 43 42 42 40 38 39 37 37 37 37 39 39 40 40 42 43 44 43 43 42 41 40 38 39 39 39 38 39 40 38 37 37 37 37 36 36 35 36 35 35 36 36 36 35 34 35 36 36 36 37 37 37 37 38 40 40 39 40 41 44 45 47 51
46 46 46 47 47 47 47 47 47 46 46 46 45 45 45 45 45 44 43 44 43 45 43 40 41 40 39 38 36 35 35 36 37 38 39 40 42 42 41 43 42 40 41 39 38 38 38 38 38 38 38 37 36 36 36 37 36 35 35 35 35 35 36 36 36 35 35 35 35 35 36 36 36 36 37 38 38 39 39 39 40 42 43 46 54
46 45 45 46 46 46 47 47 47 46 46 46 46 45 45 44 44 42 44 44 43 44 43 41 40 39 40 37 36 35 34 36 37 38 40 41 43 43 42 42 42 41 41 40 39 38 38 37 38 37 37 36 36 35 36 36 36 35 34 34 35 36 36 36 35 35 35 35 35 36 36 36 37 36 37 36 37 37 38 39 40 40 42 45 45
45 45 45 45 45 45 46 46 45 45 45 45 44 45 45 43 43 43 41 41 42 43 43 42 39 37 37 36 36 34 34 36 36 37 38 40 42 43 43 43 43 40 39 39 38 38 38 36 37 37 36 36 35 36 36 36 35 35 35 35 35 35 35 35 35 35 35 35 35 35 36 36 35 36 36 36 37 37 37 38 39 40 40 41 42
44 44 44 43 42 42 42 43 44 44 45 44 45 43 43 43 41 41 43 43 42 42 42 40 41 39 38 37 35 35 35 35 36 37 37 38 39 42 43 43 41 41 39 38 38 37 37 37 37 37 36 36 36 37 36 35 35 35 36 35 35 35 35 34 35 35 34 34 34 34 34 35 35 35 35 36 36 36 37 37 37 39 40 40 41
42 42 42 42 41 42 42 43 43 43 43 42 42 43 42 42 43 43 43 43 43 42 41 40 41 39 39 37 36 35 34 34 36 37 37 37 38 41 41 43 41 39 41 39 39 37 36 36 37 35 36 36 38 36 34 34 34 34 35 35 36 36 36 36 35 34 34 34 33 34 34 34 34 35 35 35 35 35 37 37 37 37 38 40 41
41 40 40 41 41 41 42 42 42 42 41 41 42 42 42 42 42 42 43 44 45 42 41 40 39 38 38 37 34 35 35 36 38 37 37 37 38 40 42 40 41 40 39 40 38 36 36 36 37 35 38 42 41 39 38 37 36 34 35 35 36 36 36 36 35 34 33 34 34 35 34 34 34 35 35 35 34 35 36 36 36 37 38 38 39
39 38 38 39 40 38 39 41 39 41 41 41 41 42 41 42 43 42 42 42 43 42 40 39 36 36 36 35 35 36 35 37 38 38 37 37 38 40 41 42 41 41 39 40 38 37 36 36 38 39 41 41 38 37 36 37 38 36 36 36 36 37 37 35 34 34 34 34 34 34 34 34 34 35 35 35 35 35 35 35 36 36 37 37 38
38 37 37 36 37 37 38 38 39 38 40 41 41 40 41 42 42 42 43 43 44 43 42 39 37 35 33 34 35 35 36 38 37 36 36 37 38 39 41 41 41 41 39 37 37 36 36 35 38 36 38 39 36 36 36 36 36 37 38 39 41 38 36 35 35 35 35 35 35 34 34 34 35 35 35 35 35 36 36 35 36 36 36 36 36
36 34 34 36 36 35 36 36 36 37 38 38 39 39 41 41 41 42 43 43 44 44 43 40 38 36 35 33 35 35 35 38 36 36 36 36 37 39 41 42 40 41 38 35 35 37 37 37 36 38 36 36 34 33 35 36 36 36 37 37 37 37 37 36 36 36 36 34 34 35 35 35 35 35 35 36 36 36 37 36 35 35 35 36 37
32 33 34 33 32 35 33 33 34 35 35 36 39 39 39 39 40 40 41 43 43 43 42 43 41 38 35 33 33 33 34 37 35 36 35 35 35 38 40 43 38 40 38 34 36 37 37 37 36 37 36 38 36 33 33 34 36 37 38 37 37 37 35 35 37 36 36 35 35 35 36 36 36 37 37 37 37 37 37 37 36 35 35 36 36
33 32 32 32 32 33 33 33 34 35 36 36 37 37 38 39 41 41 41 41 42 42 43 43 43 40 37 36 35 34 36 37 35 36 35 35 35 37 40 39 41 39 36 35 39 39 37 38 37 36 35 35 33 33 33 33 34 34 34 34 33 35 36 36 35 36 37 37 36 36 37 38 38 38 38 38 38 37 38 37 36 36 35 36 36
33 33 32 32 32 32 32 33 34 34 35 36 38 37 39 40 40 41 41 41 41 41 41 43 44 42 40 38 37 36 37 36 35 35 35 35 35 39 39 38 39 39 41 39 38 41 38 38 37 36 36 34 34 33 33 33 34 35 34 33 33 32 33 34 34 34 36 37 37 37 38 38 39 39 38 39 39 38 39 38 38 38 38 38 38
31 32 32 32 31 32 32 33 34 34 35 36 37 37 39 39 39 40 40 40 41 40 41 41 42 43 43 41 39 36 37 35 35 35 35 35 36 39 38 35 37 36 37 40 35 39 38 36 36 37 36 33 34 34 34 35 34 33 32 32 33 32 32 36 35 36 37 37 37 37 38 39 38 39 39 39 39 39 40 40 39 39 39 38 37
31 32 32 30 31 32 33 33 34 34 35 36 36 38 38 39 40 40 40 40 40 39 39 39 38 40 41 42 41 38 36 36 35 35 35 35 37 38 37 33 34 35 35 37 37 41 39 35 38 36 32 31 33 33 33 35 33 32 32 32 33 32 31 32 35 35 36 37 37 37 37 37 37 38 38 38 39 40 41 39 37 36 37 37 36
31 31 31 31 31 32 32 31 33 34 36 35 37 39 39 40 40 41 39 39 39 39 39 37 37 37 37 39 43 39 37 37 35 35 35 35 37 37 35 34 33 33 34 36 36 39 39 42 36 32 31 31 33 33 33 36 33 32 32 32 32 31 29 31 33 34 37 37 36 36 37 37 37 38 38 38 38 40 40 37 38 39 37 37 37
31 31 31 30 30 31 32 33 33 34 35 37 38 38 39 39 40 42 41 40 40 38 37 38 39 38 38 39 40 41 39 38 35 35 35 35 37 36 35 33 32 32 33 34 36 34 39 41 40 35 32 33 32 33 33 34 33 32 32 33 32 30 29 29 31 32 33 33 34 36 37 38 39 38 40 39 39 41 41 40 40 39 37 37 37
31 31 30 31 32 33 34 35 35 35 35 37 39 39 39 39 40 39 39 34 33 34 37 38 39 39 40 39 41 43 40 39 37 34 35 35 36 37 35 33 32 31 33 33 34 33 33 32 34 33 32 32 32 32 33 33 33 33 33 34 31 28 29 30 33 33 32 33 34 36 37 38 37 37 38 39 40 42 41 41 41 40 38 38 38
31 31 31 31 32 32 33 35 37 37 37 38 39 39 41 42 44 43 40 39 40 41 41 40 39 40 41 42 41 43 42 40 39 34 34 35 35 36 34 33 33 32 32 33 33 33 31 32 33 34 33 33 33 33 33 33 34 35 35 34 30 32 32 30 33 35 31 33 35 36 37 37 37 37 38 39 40 41 41 40 41 41 40 39 38
32 32 31 31 33 34 35 37 38 39 38 38 39 39 40 40 41 40 38 42 43 42 43 41 40 39 39 41 41 41 39 43 40 35 34 34 34 35 36 35 36 35 33 32 32 32 32 32 33 34 34 34 34 34 33 33 33 37 36 33 32 32 31 34 33 29 31 32 34 35 36 37 37 37 38 38 39 41 40 40 40 41 41 41 40
32 33 33 34 35 36 37 39 39 39 39 39 39 39 41 42 42 40 40 41 41 41 42 42 41 40 41 40 39 41 38 37 34 37 34 32 34 33 33 34 34 39 34 33 34 32 32 33 33 35 33 33 33 34 33 33 33 32 32 32 32 31 33 29 29 29 30 31 33 34 36 37 37 37 37 37 39 40 40 40 40 40 41 41 42
32 33 35 35 37 36 37 38 38 39 39 39 38 39 39 40 39 40 39 38 38 38 37 38 40 40 40 40 38 37 39 36 34 34 35 32 33 32 33 33 33 34 35 35 33 33 32 32 33 33 33 33 33 33 33 32 30 31 32 32 32 32 29 27 26 28 30 30 32 34 36 37 37 37 37 39 40 40 40 39 40 40 41 40 41
34 35 35 35 37 35 37 38 38 37 38 38 38 38 39 40 39 40 40 42 39 37 36 35 41 39 41 41 41 37 36 37 38 35 32 32 32 32 32 32 32 33 34 35 34 33 33 33 33 33 33 33 33 32 31 31 30 30 31 31 33 27 28 25 27 27 27 29 31 34 36 37 38 38 39 40 40 40 39 39 39 39 40 40 41
34 34 34 35 35 33 36 36 35 37 39 38 39 38 39 38 37 37 38 38 39 42 37 36 34 34 40 39 41 38 37 34 34 35 33 33 32 31 32 32 34 34 34 34 32 33 32 33 33 33 33 33 32 29 29 29 30 30 29 31 28 26 26 24 25 25 25 28 30 34 36 37 37 39 39 40 39 38 38 37 37 37 38 38 38
35 35 35 34 34 33 35 35 36 37 39 36 36 38 37 40 42 39 39 39 41 38 37 37 37 36 38 37 37 36 33 33 33 34 34 34 30 31 31 31 34 33 32 32 33 32 32 33 33 33 33 31 29 30 29 30 28 28 26 26 27 26 27 26 25 25 26 27 29 31 34 37 38 39 39 39 38 39 39 37 36 36 37 37 37
33 33 32 32 33 33 34 33 34 36 38 37 36 34 36 38 38 42 39 40 42 39 36 36 36 38 39 34 37 36 35 30 31 33 35 33 32 31 30 32 32 32 31 31 32 33 33 34 34 33 30 32 28 28 26 28 28 27 27 27 26 27 29 30 29 25 25 26 28 30 31 33 37 38 39 38 38 38 38 37 36 36 36 36 35
34 32 32 31 34 34 35 34 34 35 37 36 37 40 39 40 39 34 37 34 34 36 37 36 36 38 38 37 34 36 33 31 34 33 37 33 33 33 33 32 32 33 34 33 34 33 33 33 32 30 27 28 26 27 27 28 28 27 29 28 27 27 27 25 25 24 25 26 27 29 29 30 36 38 38 38 37 38 38 37 36 36 36 36 34
34 33 32 33 34 34 35 33 33 33 35 34 36 37 33 34 33 31 33 33 34 34 34 36 40 39 39 38 34 37 36 38 32 32 33 34 34 34 34 34 33 34 34 33 34 32 32 31 31 27 28 26 27 27 27 27 27 26 27 29 27 27 26 26 25 25 26 27 28 29 28 30 32 36 38 37 37 38 37 36 35 36 35 34 34
33 32 33 33 33 35 34 32 32 32 33 35 36 33 33 36 32 32 33 33 33 32 32 31 29 33 38 39 38 33 32 32 32 33 34 34 34 34 34 33 33 33 33 32 31 30 30 30 28 27 27 27 28 28 29 28 27 27 27 27 26 28 27 26 26 26 27 29 29 29 29 29 30 34 37 37 37 37 37 37 37 35 34 34 34
33 33 33 34 34 34 33 30 33 37 31 33 33 31 31 33 36 33 32 33 33 33 33 32 32 33 32 34 38 41 33 33 34 34 34 34 34 33 33 33 33 33 33 33 31 30 31 28 28 27 27 28 28 28 27 27 27 25 26 26 26 28 27 26 27 25 26 27 28 28 28 29 29 31 36 36 34 37 36 35 35 35 34 34 34
35 34 34 35 33 33 31 28 33 38 35 33 34 26 24 25 29 31 32 34 34 33 34 34 34 34 34 34 34 34 34 35 34 35 34 34 33 33 33 33 33 33 33 32 31 31 30 28 28 26 26 27 25 26 26 27 25 26 25 25 26 26 25 26 28 25 27 27 29 28 28 29 29 29 32 34 34 34 35 35 36 35 34 33 32
35 35 35 34 33 34 35 33 34 36 38 33 33 28 25 29 27 27 27 31 33 33 34 34 34 34 35 34 34 34 34 34 33 33 34 33 33 33 33 33 33 34 33 33 32 32 28 28 27 26 26 27 27 26 27 26 25 25 25 24 25 25 25 26 26 26 27 28 28 27 27 28 28 29 30 34 35 35 34 34 35 34 33 33 32
37 33 33 33 32 32 34 36 34 35 36 35 33 32 33 33 32 30 27 27 29 29 29 32 33 34 33 33 33 34 34 34 34 34 33 33 33 34 33 33 32 32 36 38 34 30 28 29 27 27 26 26 27 27 27 27 26 26 25 24 24 24 24 26 27 27 27 27 27 27 27 27 27 28 29 31 33 33 33 33 34 35 35 33 33
38 35 38 37 34 33 34 37 34 35 35 34 34 32 32 34 32 32 32 31 31 31 31 31 31 32 34 34 33 33 34 34 33 33 33 33 33 33 31 30 31 31 30 31 31 32 30 30 29 27 26 26 28 28 25 26 27 25 26 25 26 25 25 26 28 28 28 28 28 28 27 27 28 28 29 29 32 33 34 34 33 33 34 34 33
36 35 35 36 35 33 34 36 35 34 32 32 31 31 32 33 33 33 35 32 32 31 35 33 33 37 34 33 34 34 34 34 33 33 33 33 34 33 32 31 31 32 30 31 32 33 30 30 30 28 28 27 26 27 27 27 27 25 28 26 25 25 27 27 28 29 28 27 28 27 27 26 27 28 28 28 30 31 33 33 33 33 33 33 33
35 34 34 35 36 35 34 36 33 30 34 33 34 34 31 32 31 30 35 33 33 35 38 33 33 33 32 32 37 34 32 33 34 34 33 33 31 31 32 32 32 31 30 32 34 33 32 32 31 29 28 28 27 28 27 27 27 26 26 26 27 28 29 29 29 29 29 28 27 27 26 25 26 27 27 28 29 30 31 32 32 33 33 33 33
34 33 32 32 33 32 31 33 33 31 32 32 33 33 30 31 32 33 31 34 34 34 32 33 31 30 32 34 35 35 33 32 32 32 31 31 32 32 32 32 32 31 33 33 33 33 33 32 31 31 31 29 27 26 26 27 28 27 27 27 28 27 27 27 27 28 28 27 27 27 26 25 25 26 27 27 28 30 31 31 32 32 33 32 32
33 34 32 31 31 33 31 32 33 31 31 31 31 32 32 32 31 32 31 31 34 30 30 30 30 31 33 35 34 35 33 32 32 30 28 29 30 31 30 31 31 31 33 34 33 33 33 32 35 32 32 30 27 26 26 27 28 27 27 28 26 26 27 28 27 27 28 28 28 28 27 26 25 26 27 27 27 28 30 30 31 32 32 32 32
33 33 31 30 29 30 32 32 33 31 31 31 32 30 30 33 32 31 34 33 34 34 35 35 35 35 37 30 33 33 32 29 29 26 25 28 29 32 33 32 32 33 32 32 32 32 32 32 30 29 31 29 28 28 28 27 28 27 27 27 26 26 26 27 27 27 29 28 28 28 28 27 26 25 26 27 29 28 28 30 30 31 32 32 32
32 32 30 29 29 29 30 31 33 32 33 30 30 30 29 31 31 32 29 29 31 30 33 33 32 34 31 29 28 27 30 33 29 28 30 27 28 31 32 33 32 33 33 33 33 34 32 31 31 32 29 29 29 29 27 28 28 27 27 26 25 25 26 25 26 28 28 28 28 28 28 28 27 26 26 29 27 28 27 28 30 30 31 32 32
33 32 29 29 29 29 29 31 32 33 31 32 31 29 30 30 32 33 31 31 30 32 30 31 31 33 31 29 28 28 30 32 28 30 30 28 28 30 31 32 34 35 34 36 33 33 31 29 29 27 28 29 32 27 27 28 28 26 25 25 25 25 25 25 26 27 28 28 28 29 29 28 27 26 26 27 28 28 28 28 29 30 30 31 31
33 33 31 32 31 30 30 29 30 32 33 32 32 32 31 30 30 32 31 32 30 29 29 30 33 33 32 28 29 27 28 29 29 30 29 28 29 30 32 31 32 33 34 33 32 33 30 29 28 31 32 32 33 33 30 28 29 27 25 24 24 25 25 26 26 27 28 27 27 28 28 28 28 27 27 27 27 27 27 28 28 29 30 30 31
34 31 32 31 32 30 29 29 29 30 30 31 33 31 32 30 29 28 28 29 29 30 30 29 28 28 29 29 28 27 27 29 29 29 29 31 30 31 31 30 31 32 31 31 32 34 32 31 30 28 28 30 29 31 30 29 30 28 26 27 24 25 24 25 26 28 28 27 27 28 28 27 27 27 27 27 27 26 27 27 28 28 29 30 30
32 31 31 32 31 30 28 27 28 29 29 29 29 29 28 28 27 28 28 29 28 30 28 29 29 30 29 30 28 28 29 30 30 30 30 30 30 31 31 30 30 31 30 29 31 34 30 30 29 28 27 28 31 28 30 30 29 29 31 29 27 26 26 26 27 28 27 27 28 28 28 27 27 28 28 27 27 26 27 27 27 28 27 28 30
35 32 31 31 31 30 29 28 27 26 27 28 28 29 29 28 27 27 27 27 28 27 28 27 28 30 29 28 28 28 29 29 29 29 30 30 31 32 33 31 29 30 31 32 31 30 31 30 30 30 30 29 29 33 31 28 28 27 29 27 28 29 26 26 27 27 27 28 29 29 29 27 27 27 28 28 27 27 27 27 27 27 27 27 26
33 32 32 32 31 30 30 30 29 28 26 26 28 28 28 28 27 27 26 27 26 25 25 26 27 27 27 28 29 29 28 27 28 28 27 28 29 29 31 33 30 30 30 29 30 30 30 31 30 30 29 29 29 29 31 31 30 30 29 28 26 28 28 26 28 29 27 28 29 29 29 28 26 27 28 27 26 27 27 26 27 26 26 26 27
31 31 31 31 31 30 30 29 29 29 28 29 29 29 28 29 27 26 26 26 26 27 26 26 26 26 26 28 28 28 29 30 29 29 28 28 30 31 31 31 30 30 30 30 30 30 31 31 31 31 31 31 32 31 30 30 30 29 29 27 26 26 26 26 26 28 28 29 28 29 29 27 26 27 28 26 26 27 27 27 27 26 27 26 26
31 32 32 31 31 31 30 30 30 29 29 29 29 29 29 29 28 27 26 25 25 27 26 27 27 27 27 26 26 27 27 27 29 29 29 29 29 30 30 31 31 31 30 30 31 30 30 30 31 31 31 31 31 31 30 29 29 28 29 27 27 27 26 25 26 26 29 27 28 29 29 29 26 26 27 26 25 27 26 26 27 27 26 26 25
30 32 32 32 31 31 30 30 30 30 29 29 29 29 29 29 28 28 27 27 26 25 25 27 26 27 27 27 27 28 28 28 27 28 29 29 31 31 30 30 31 32 32 31 30 30 32 32 31 32 31 31 31 31 30 30 30 29 28 28 27 26 26 26 27 26 26 26 27 29 29 29 28 27 27 27 25 25 27 27 27 26 25 25 25